Location: Arborea
(39.7744°N, 8.5819°E)
Time: 22:44:57
(UTC+00:00)

Cosmos 2322 - Pass Details

Date: 06 June 2022
Orbit: 840 x 855 km, 71.0° (Epoch: 01 July)

Event Time Altitude Azimuth Distance (km) Brightness Sun altitude
Rises 21:34:37 0° 230° (SW) 3,411 6.7 -22.5°
Reaches altitude 10° 21:37:20 10° 241° (WSW) 2,480 6.1 -22.7°
Maximum altitude 21:42:20 31° 303° (WNW) 1,463 5.4 -23.1°
Drops below altitude 10° 21:47:23 10° 4° (N) 2,493 7.0 -23.5°
Sets 21:50:09 0° 15° (NNE) 3,433 7.6 -23.7°
